Terug naar catalogus

THURAYA 4

ActiefCommunicatieGEO
NORAD 62483·PAYLOAD·🇦🇪 UAE

Gelanceerd Jan 4, 2025 vanaf Cape Canaveral Space Force Station

Loading…

TLE

VersSource: Space-Track

Epoch: Sep 14, 2026, 19:08 UTC

1 62483U 25001A   26257.79772103  .00000132  00000-0  00000-0 0  9995
2 62483   0.0182 108.6725 0000249 225.5635 351.0019  1.00266101  5076

Volg THURAYA 4 in realtime met AllMySat

Download on the App Store